SCP
0 0 0 0 0 0 0 0 0 0 0 0 0 0 0 0 0 0 0 0 0 0 0 0 0 0 0 0 0 0 0 0 0 0 0 0 0 0 0 0 0 0 0 0 0 0 0 0 0 0 0 0 0 0
0 0 0 0 0 0 0 0 0 0 0 0 0 0 0 0 0 0 0 0 0 0 0 0 0 0 0 0 0 0 0 0 0 0 0 0 0 0 0 0 0 0 0 0 -0 -0 0 0 0 0 0 0 0 0
0 0 0 0 0 0 0 0 0 0 0 0 0 0 0 0 0 0 0 0 0 0 0 0 0 0 0 0 0 0 0 0 0 0 0 0 0 0 0 0 0 0 0 0 0 -0 -0 -0 0 0 0 0 0 0
0 0 0 0 0 0 0 0 0 0 0 0 -0 0 0 0 0 0 0 0 0 0 0 0 0 0 0 0 0 0 0 0 0 0 0 0 0 0 0 0 0 0 0 0 -0 -0 0 -0 -0 -0 0 0 0 0
0 0 0 0 0 0 0 0 0 0 0 0 0 0 0 0 0 0 0 0 0 0 0 0 0 0 0 0 0 0 0 0 0 0 0 0 0 0 0 0 0 0 0 0 -0 -0 0 -0 0 -0 -0 -0 -0 -0
0 0 0 0 0 0 0 0 0 0 0 0 0 -0 0 0 0 0 0 0 0 0 0 0 0 0 0 0 0 0 0 0 0 0 0 0 0 0 0 0 -0 0 0 0 0 0 0 -0 -0 -0 -0 -0 -0 -0
0 0 0 0 -0 0 0 0 0 0 0 0 0 -0 0 0 0 0 0 0 0 0 0 0 0 0 0 0 0 0 0 0 0 0 0 0 0 0 0 0 0 0 0 -0 0 0 -0 0 -0 0 0 0 0 0
0 0 0 0 0 0 0 0 0 0 0 0 0 0 0 0 0 0 0 0 0 0 0 0 0 0 0 0 0 0 0 0 0 0 0 0 0 0 0 0 0 0 0 0 0 0 0 0 0 0 0 0 0 0
0 0 0 0 0 0 0 0 0 0 0 0 0 0 0 -0 0 0 0 0 -0 0 0 0 0 0 0 0 0 0 0 0 0 0 0 0 0 0 -0 0 -0 -0 0 0 0 0 0 0 0 0 0 0 0 0
0 0 0 0 0 0 0 0 0 0 0 0 0 0 -0 -0 0 0 0 0 0 0 0 0 0 0 0 0 0 0 0 0 0 0 0 0 0 0 0 0 -0 0 0 0 0 0 0 0 0 0 0 0 0 0
0 0 0 0 0 0 0 0 0 0 0 0 0 0 0 0 0 0 0 0 0 0 0 0 0 0 0 0 0 0 0 0 0 0 0 0 -0 -0 0 0 0 -0 -0 -0 -0 0 0 0 0 0 0 0 0 0
0 0 0 0 0 0 0 0 0 0 0 0 0 0 -0 -0 0 0 0 0 0 0 0 0 0 0 0 0 0 0 0 0 0 0 0 0 -0 0 0 0 0 0 0 0 0 0 -0 0 0 0 0 0 0 0
-0 0 0 0 0 0 0 0 0 0 0 0 0 0 -0 0 0 0 0 0 0 0 0 0 0 0 0 0 0 0 0 0 0 0 0 0 0 0 0 0 0 0 0 0 0 0 0 0 0 0 0 0 0 0
-0 0 0 0 0 0 0 0 0 0 0 0 0 -0 0 0 0 0 0 0 0 0 0 0 0 0 0 0 0 0 0 0 0 0 0 0 0 0 0 0 0 0 0 0 0 0 0 0 0 0 0 0 0 0
-0 -0 -0 -0 0 -0 -0 0 0 0 0 0 0 0 0 -0 0 0 0 0 0 0 0 0 0 0 0 0 0 0 0 0 0 0 0 0 0 0 0 0 0 0 0 0 0 0 0 0 0 0 0 0 0 0
-0 -0 0 0 0 0 0 0 0 0 0 0 0 0 -0 -0 0 -0 0 0 0 0 0 0 0 0 0 0 0 0 0 0 0 0 0 0 0 0 0 0 0 0 0 0 0 0 0 0 0 0 0 0 0 0
-0 0 0 0 0 0 0 0 0 0 0 0 -0 -0 -0 -0 0 0 -0 0 0 0 0 0 0 0 0 0 0 0 0 0 0 0 0 0 0 0 0 0 0 0 0 0 0 0 0 0 0 0 0 0 0 0
0 -0 0 -0 0 0 0 0 0 0 -0 -0 -0 -0 -0 -0 0 0 0 0 0 0 0 0 0 0 0 0 0 0 0 0 0 0 0 0 0 0 0 0 0 0 0 0 0 0 0 0 0 0 0 0 0 0
0 0 -0 0 0 0 0 0 0 0 -0 -0 -0 -0 -0 -0 0 0 0 0 0 0 0 0 0 0 0 0 0 0 0 0 0 0 0 0 0 0 0 0 0 0 0 0 0 0 0 0 0 0 0 0 0 0
0 0 0 0 0 0 0 0 0 0 -0 -0 -0 -0 -0 -0 0 0 0 0 0 0 0 0 0 0 0 0 0 0 0 0 0 0 0 0 0 0 0 0 0 0 0 0 0 0 0 0 0 0 0 0 0 0
0 0 0 0 0 0 0 0 0 0 -0 -0 -0 -0 -0 0 0 0 0 0 0 0 0 0 0 0 0 0 0 0 0 0 0 0 0 0 0 0 0 0 0 0 0 0 0 0 0 0 0 0 0 0 0 0
0 0 0 0 0 0 0 0 -0 -0 -0 -0 -0 -0 0 0 0 0 0 0 0 0 0 0 0 0 0 0 0 0 0 0 0 0 0 0 0 0 0 0 0 0 0 0 0 0 0 0 0 0 0 0 0 0
0 0 0 0 0 0 0 0 -0 -0 -0 -0 -0 0 0 0 0 0 0 0 0 0 0 0 0 0 0 0 0 0 0 0 0 0 0 0 0 0 0 0 0 0 0 0 0 0 0 0 0 0 0 0 0 0
0 0 0 0 0 0 0 0 0 -0 -0 -0 0 0 0 0 0 0 0 0 0 0 0 0 0 0 0 0 0 0 0 0 0 0 0 0 0 0 0 0 0 0 0 0 0 0 0 0 0 0 0 0 0 0
0 0 0 0 0 0 0 0 0 -0 -0 0 0 0 0 0 0 0 -0 0 0 0 0 0 0 0 0 0 0 0 0 0 0 0 0 0 0 0 0 0 0 0 0 0 0 0 0 0 0 0 0 0 0 0
0 0 0 0 0 -0 -0 -0 -0 -0 0 0 0 -0 0 0 0 0 0 0 0 0 0 0 0 0 0 0 0 0 0 0 0 0 0 0 0 0 0 0 0 0 0 0 0 0 0 0 0 0 0 0 0 0
0 0 0 0 0 0 0 -0 -0 -0 -0 -0 -0 0 0 0 -0 0 0 0 0 0 0 0 0 0 0 0 0 0 0 0 0 0 0 0 0 0 0 0 0 0 0 0 0 0 0 0 0 0 0 0 0 0
0 0 -0 0 -0 0 0 0 0 -0 -0 0 0 0 0 0 0 0 0 0 0 0 0 0 0 0 0 0 0 0 0 0 0 0 0 0 0 0 0 0 0 0 0 0 0 0 0 0 0 0 0 0 0 0
0 0 0 0 0 0 0 0 0 0 0 0 0 0 0 0 0 0 0 0 0 0 0 0 0 0 0 0 0 0 0 0 0 0 0 0 0 0 0 0 0 0 0 0 0 0 0 0 0 0 0 0 0 0
-0 -0 -0 -0 -0 0 0 -0 -0 0 0 0 0 0 0 0 0 0 0 0 0 0 0 0 0 0 0 0 0 0 0 0 0 0 0 0 0 0 0 0 0 0 0 0 0 0 0 0 0 0 0 0 0 0
-0 -0 -0 -0 0 0 0 0 0 0 0 0 0 0 0 0 0 0 0 0 0 0 0 0 0 0 0 0 0 0 0 0 0 0 0 0 0 0 0 0 0 0 0 0 0 0 0 0 0 0 0 0 0 0
0 0 0 -0 0 0 0 0 0 0 0 0 0 0 0 0 0 0 0 0 0 0 0 0 0 0 0 0 0 0 0 0 0 0 0 0 0 0 0 0 0 0 0 0 0 0 0 0 0 0 0 0 0 0
0 0 0 0 0 0 0 0 0 0 0 0 0 0 0 0 0 0 0 0 0 0 0 0 0 0 0 0 0 0 0 0 0 0 0 0 0 0 0 0 0 0 0 0 0 0 0 0 0 0 0 0 0 0
Wind_Speed_500mb
63 63 63 62 56 51 48 41 40 32 30 29 27 24 24 29 24 17 22 21 50 13 23 32 32 18 18 21 9 18 10 8 2 4 6 5 5 9 2 7 13 14 15 8 6 3 13 28 16 16 9 7 61 58
64 65 70 70 66 58 56 49 41 39 32 30 28 29 25 32 30 20 24 20 36 40 16 19 35 42 42 31 28 37 3 9 20 4 3 4 4 5 5 6 3 4 12 9 17 12 6 68 8 30 13 31 58 62
68 69 71 71 74 72 62 57 46 43 34 33 31 25 30 31 41 24 28 24 24 35 35 37 30 42 48 44 40 20 13 10 8 11 9 3 7 8 6 11 2 9 11 5 6 7 19 43 52 30 22 25 52 56
77 87 78 81 76 77 71 58 52 45 41 33 33 26 29 34 39 35 31 25 31 12 8 13 24 26 34 44 44 41 20 11 9 8 7 3 4 12 5 4 6 6 15 9 12 16 9 37 59 50 33 34 49 56
77 80 89 87 86 79 80 63 56 48 42 32 34 28 27 35 40 39 39 33 38 28 4 6 13 23 27 35 41 40 37 22 9 7 4 5 4 3 2 3 9 21 15 11 12 17 7 4 25 59 57 47 55 63
70 71 78 82 86 74 74 61 57 49 41 36 34 26 29 33 30 23 15 52 48 39 11 4 10 10 21 23 31 30 28 23 11 8 4 10 7 6 4 7 17 47 42 43 6 8 19 6 11 29 71 60 59 63
56 62 69 77 80 74 78 61 52 43 36 32 34 31 32 33 38 37 14 7 32 54 13 3 5 4 19 24 22 24 28 15 10 5 11 7 7 9 3 9 16 26 43 52 46 24 14 18 10 10 62 64 58 61
49 57 62 61 50 64 53 47 44 35 31 32 31 33 33 40 57 65 56 40 16 48 12 5 2 4 29 11 9 16 16 16 12 8 7 6 4 8 11 28 54 46 28 33 45 53 39 15 10 21 36 69 63 72
33 33 22 42 43 38 35 32 32 30 31 31 30 30 45 50 38 54 48 48 33 28 11 12 12 8 28 9 9 11 12 4 8 4 6 6 5 12 24 20 31 36 25 16 24 40 51 56 39 23 29 67 72 75
21 32 27 29 26 29 30 32 28 27 27 23 26 20 15 23 43 32 50 45 36 24 18 6 18 6 20 11 4 9 3 2 5 4 9 6 9 48 71 63 49 22 19 23 24 16 32 54 60 56 47 44 77 75
16 11 22 28 29 32 30 29 33 30 24 28 16 23 33 23 28 37 23 21 22 8 27 22 17 12 22 7 6 11 5 2 5 3 5 5 9 12 28 33 45 67 63 56 46 35 27 19 28 54 55 46 48 74
30 28 30 31 34 39 43 44 42 38 41 30 24 28 31 16 29 14 12 10 13 16 20 19 21 17 20 13 8 8 6 4 9 2 3 8 10 18 16 15 12 13 20 31 40 48 59 51 31 25 40 50 49 48
42 42 40 37 36 42 44 43 38 39 36 35 21 12 11 19 16 28 16 8 9 16 31 28 10 20 15 10 11 4 8 7 7 3 8 11 6 16 19 14 11 13 16 21 24 26 25 40 61 59 41 35 44 50
43 45 46 45 42 42 41 39 39 36 29 21 16 14 10 11 10 7 12 11 13 31 61 53 23 12 12 7 6 7 4 5 2 3 13 6 10 24 17 14 13 15 15 16 20 25 27 29 31 46 52 41 37 44
44 45 44 42 41 42 42 37 34 41 25 17 17 11 15 17 18 25 12 23 22 76 82 30 17 13 4 8 4 8 5 9 12 11 7 3 17 16 11 9 8 9 11 13 14 14 18 22 22 25 44 44 34 32
50 47 54 50 46 41 41 36 38 40 20 16 12 10 10 13 12 22 18 15 44 66 52 13 9 8 5 11 9 18 16 14 9 7 6 17 11 8 6 3 2 4 6 5 5 3 4 6 11 19 23 36 33 27
42 66 64 57 51 45 42 42 36 21 17 13 13 20 20 27 18 17 22 15 59 59 8 7 11 11 10 5 7 10 11 7 7 14 19 16 12 11 10 10 10 11 10 8 9 9 9 7 3 8 13 22 21 19
54 72 71 65 56 46 45 36 18 11 15 28 6 7 25 35 38 40 21 31 41 29 22 10 21 7 13 14 8 8 12 17 21 22 21 19 17 16 17 19 21 24 24 27 25 25 23 19 16 17 12 15 15 12
63 61 76 62 51 44 23 20 16 8 24 9 12 20 27 32 49 44 35 48 31 16 14 13 7 8 8 6 2 8 38 31 33 31 29 26 25 24 26 28 28 27 27 30 29 31 30 24 19 16 10 5 5 6
56 52 69 56 59 24 15 12 20 16 10 13 12 16 18 20 32 35 37 48 35 10 3 4 4 1 4 3 5 12 36 39 50 48 37 34 32 30 34 33 31 30 28 30 29 29 29 24 21 19 15 8 5 4
66 67 64 67 56 26 16 17 16 10 8 12 14 13 13 28 18 9 11 35 12 2 3 5 3 5 7 13 28 33 40 42 36 19 50 48 39 32 32 29 27 24 20 22 20 21 19 17 16 14 12 9 6 4
74 75 68 51 14 21 15 17 8 5 8 8 15 16 11 7 15 14 20 4 3 4 6 10 15 19 27 32 36 41 37 26 24 42 41 41 40 31 27 25 17 17 15 17 17 18 16 15 12 10 8 7 8 9
86 60 49 20 12 20 11 18 10 11 3 5 8 6 6 6 11 22 9 4 1 6 19 22 22 26 36 40 32 35 33 38 44 40 37 36 34 27 20 17 14 14 14 14 14 14 14 15 13 13 15 15 16 16
61 17 12 16 13 8 16 9 8 3 6 2 2 6 3 1 14 3 3 2 8 22 26 33 32 36 35 35 36 39 40 37 40 40 33 25 24 23 18 15 14 13 12 13 13 14 13 10 11 11 12 14 15 16
12 7 10 3 5 10 6 7 5 2 7 5 6 7 6 14 7 3 4 2 17 27 33 35 33 35 35 35 32 33 35 29 26 28 27 19 15 17 16 16 16 14 13 14 12 11 11 13 13 15 16 17 17 18
6 1 5 12 6 10 12 12 13 10 5 10 11 2 3 3 6 4 5 10 18 29 34 32 31 34 32 31 32 30 28 25 19 14 19 16 13 12 13 12 11 11 11 11 12 13 14 15 16 17 18 19 20 20
12 11 8 10 9 9 6 8 9 5 12 10 6 7 8 11 6 1 3 13 19 27 31 30 30 30 30 30 27 27 26 23 16 16 22 19 16 13 12 11 11 11 11 12 13 14 14 15 15 17 20 21 23 25
6 5 13 11 12 11 8 4 2 4 3 9 5 4 4 5 4 6 8 17 25 28 29 29 29 30 30 28 26 26 26 24 25 26 23 20 18 16 14 14 15 14 14 13 15 16 16 17 19 21 22 24 26 27
4 12 13 8 8 9 5 4 5 2 3 3 1 3 5 10 8 11 18 23 28 30 31 31 31 29 29 29 28 27 28 26 21 21 19 22 20 18 17 17 16 15 16 17 18 19 20 21 22 24 25 28 31 30
5 7 13 5 5 5 5 6 12 9 10 16 13 14 16 16 18 19 24 29 32 34 32 31 32 30 31 30 34 33 28 22 21 19 19 19 20 21 21 21 20 20 22 22 21 23 24 25 27 31 31 34 33 33
13 7 11 10 6 6 22 33 29 24 14 16 16 16 16 18 23 21 19 26 32 32 31 32 35 34 34 35 34 32 31 26 23 23 23 24 25 26 26 25 26 27 26 26 28 30 30 32 34 36 38 41 41 41
8 5 9 8 5 25 15 7 9 9 5 6 8 7 8 8 9 8 17 28 34 33 34 34 37 39 35 32 28 28 30 32 31 31 30 29 30 30 31 32 34 32 32 36 39 39 37 40 42 43 44 45 44 44
14 13 11 19 13 14 23 17 9 11 10 7 5 4 4 5 9 11 20 28 32 31 34 35 36 37 36 35 35 36 36 36 36 36 36 35 36 38 41 41 40 39 40 43 45 44 44 44 47 46 45 45 44 43
Wind_Direction_500mb
258 258 256 250 252 253 261 259 262 266 273 287 303 300 260 249 258 309 303 279 229 234 256 245 234 195 171 179 166 155 128 190 112 210 173 209 175 210 96 190 178 170 156 191 156 202 291 157 121 163 207 162 176 179
262 258 255 255 251 246 253 255 255 261 262 269 294 298 273 244 247 269 309 285 246 237 268 270 252 244 234 223 176 173 232 177 200 120 225 121 186 152 157 264 232 275 190 178 188 213 210 186 235 190 180 178 181 179
265 261 256 251 251 248 244 250 247 253 256 264 281 290 283 253 243 246 290 285 263 244 264 263 258 250 243 236 220 167 209 224 210 229 171 183 229 135 174 240 228 243 179 215 49 272 225 213 217 216 211 197 187 184
264 255 254 251 247 244 237 234 240 243 250 256 267 284 281 274 248 235 288 283 253 242 251 249 251 242 236 227 218 213 184 204 241 219 233 173 207 194 232 229 201 195 143 190 263 268 272 238 225 220 199 192 190 190
266 258 248 249 248 240 233 226 230 233 241 245 257 275 280 290 255 256 265 251 248 219 271 255 264 246 236 225 218 218 214 213 207 218 191 241 207 155 318 324 242 192 188 174 223 217 183 241 231 214 212 199 192 192
260 253 246 239 239 230 219 216 223 226 231 241 253 260 274 291 271 272 275 244 240 231 247 262 246 244 215 212 211 207 200 198 216 222 264 257 237 198 227 239 254 218 216 215 234 231 212 237 263 222 212 209 200 196
252 248 244 240 242 244 216 202 212 219 230 239 251 252 270 282 263 250 224 273 237 210 213 234 250 181 171 171 180 182 195 195 208 237 228 242 222 215 221 237 257 244 236 230 233 236 259 239 229 257 207 208 206 203
245 245 243 230 233 197 189 195 204 214 229 243 256 265 271 275 262 263 226 252 242 182 177 222 249 170 169 178 166 167 164 179 207 249 245 210 214 215 254 244 248 246 247 248 236 235 235 247 251 226 213 205 209 205
234 231 203 170 174 184 187 199 206 216 231 247 255 270 272 273 259 253 246 241 222 187 204 165 162 198 169 159 148 150 162 164 214 239 224 165 218 223 231 239 245 250 231 225 227 234 232 233 238 240 213 207 212 213
207 180 176 180 189 197 199 205 213 225 232 245 254 259 251 248 243 221 192 183 190 204 220 170 138 155 165 155 147 123 158 201 221 211 155 196 256 247 248 248 248 231 202 227 228 233 222 226 228 229 229 226 218 217
258 216 197 202 207 214 215 217 221 225 227 231 231 233 248 220 190 196 203 172 193 205 187 158 163 138 186 140 158 191 157 145 242 170 205 243 267 247 250 236 243 247 245 251 250 244 240 248 243 233 229 227 230 225
237 228 227 227 228 235 231 229 225 220 217 216 233 262 267 269 229 194 191 181 182 201 154 143 155 137 153 156 114 169 141 150 246 102 74 267 248 237 199 186 194 224 234 237 245 248 240 237 238 241 229 232 232 235
239 235 231 232 232 224 223 221 220 224 223 235 242 250 218 235 245 183 196 179 159 160 161 154 121 138 134 150 92 153 149 213 137 67 232 237 293 196 196 202 234 256 252 250 256 249 245 237 235 238 239 244 231 229
234 231 230 229 232 225 218 216 217 212 205 191 205 216 237 250 259 208 167 183 148 151 148 139 116 132 133 118 146 139 69 86 6 277 235 244 232 191 203 219 236 254 262 258 258 257 257 254 250 236 228 229 231 232
225 225 224 223 221 219 213 214 210 211 214 216 201 227 218 296 291 322 112 130 127 149 145 121 90 112 121 113 77 117 86 245 215 232 229 145 139 163 207 238 254 264 276 281 273 264 267 264 246 230 221 225 235 234
219 222 222 223 223 218 216 212 216 215 223 228 259 267 289 356 332 320 298 144 149 153 148 129 125 120 158 133 144 210 149 217 235 218 163 147 153 166 164 166 322 328 318 305 295 290 275 265 236 225 223 216 219 232
220 225 223 220 221 219 211 219 212 215 217 216 241 255 283 302 286 285 253 232 164 159 180 135 132 175 110 85 234 187 207 222 144 145 146 143 144 139 119 97 83 69 58 58 68 77 84 70 102 173 182 194 199 212
242 220 222 221 220 217 215 220 197 233 221 234 231 244 281 278 302 293 259 195 174 206 160 184 126 145 178 177 233 215 168 145 138 141 134 130 128 124 113 104 96 85 81 81 82 81 82 81 82 95 133 182 200 217
244 243 217 213 206 199 189 205 194 230 233 241 231 248 263 277 278 270 281 199 205 208 172 147 161 186 209 207 221 164 166 154 153 136 129 125 119 113 105 100 97 92 88 84 81 79 78 78 82 92 106 151 185 215
235 212 205 196 184 170 176 211 201 223 214 208 222 240 240 248 263 256 250 208 213 215 203 216 216 247 315 102 166 193 168 153 147 132 127 125 117 112 105 100 98 92 89 85 82 79 75 76 80 83 86 91 103 150
225 207 173 174 176 183 194 180 205 227 177 195 216 248 300 291 280 246 180 180 200 102 108 86 104 113 139 135 133 151 146 144 144 152 146 132 125 122 113 107 96 96 91 87 80 78 76 74 74 76 78 75 76 78
160 161 164 170 161 184 217 198 195 188 208 183 184 200 216 204 213 186 158 120 83 110 114 126 133 127 130 127 133 137 133 139 137 137 134 130 126 123 116 107 102 91 80 69 63 59 55 54 48 44 37 30 29 25
148 147 158 155 152 188 174 171 183 202 173 194 181 217 217 223 165 146 80 71 136 140 133 135 131 132 128 128 139 131 132 140 137 134 132 131 128 123 118 112 98 77 67 60 55 54 51 46 38 37 40 36 30 24
140 128 159 154 160 169 149 153 160 214 251 271 53 311 305 244 153 46 130 72 132 142 142 137 138 133 131 132 132 130 136 145 140 134 130 133 132 120 108 94 84 76 78 76 65 54 44 36 36 32 35 33 30 23
124 169 169 135 132 110 96 116 138 163 238 191 181 230 230 181 189 153 159 187 157 150 150 145 146 151 142 136 137 135 135 137 141 142 134 133 121 108 101 89 82 75 73 69 62 54 41 35 28 31 31 32 31 28
140 150 143 184 156 154 185 151 182 160 175 204 220 327 154 223 221 195 116 165 162 157 158 156 151 150 152 155 148 141 140 140 140 145 125 117 112 110 111 107 98 80 76 74 66 55 43 34 30 30 30 36 36 31
170 221 164 113 141 172 89 25 45 112 202 160 131 185 209 209 177 19 96 151 159 159 161 161 161 163 161 155 153 148 143 138 142 139 131 124 122 117 112 106 95 92 82 71 62 58 53 47 44 41 40 38 36 33
119 160 138 110 66 24 94 117 292 261 64 12 298 192 277 43 130 172 170 160 156 156 158 158 157 156 159 159 154 154 147 143 138 127 120 116 110 105 102 98 93 89 83 77 71 64 60 54 50 46 42 41 43 43
74 102 103 81 100 77 76 119 130 60 320 355 63 94 104 95 96 128 140 147 151 148 149 151 151 154 157 155 152 148 146 143 142 141 130 117 109 103 101 98 99 100 95 84 75 73 68 62 61 58 58 55 55 53
88 126 105 88 65 48 65 97 112 105 91 97 99 102 83 83 85 114 131 141 147 145 143 148 148 150 148 152 150 149 147 142 142 135 129 122 116 112 107 103 98 94 87 85 82 80 78 73 69 69 69 69 67 66
117 112 82 71 90 63 117 98 88 77 67 70 92 118 131 123 90 88 118 134 139 140 141 144 143 140 140 139 141 140 133 131 128 125 122 120 117 111 105 104 100 95 93 92 89 86 85 88 84 82 80 78 76 74
163 136 120 109 121 162 161 172 135 104 98 67 73 88 94 106 93 108 130 146 150 147 140 138 139 137 136 134 131 132 131 126 124 121 117 112 111 110 110 106 100 100 101 99 95 93 92 90 89 86 85 83 80 78
125 131 128 128 133 179 192 176 156 118 97 105 112 106 111 104 111 128 144 150 149 145 138 136 136 132 129 129 130 127 125 123 119 116 114 114 115 112 108 104 103 103 102 100 98 95 94 92 90 88 85 83 80 78
Wind_Speed_850mb
63 63 63 62 56 51 48 41 40 32 30 29 27 24 24 29 24 17 22 21 50 13 23 32 32 18 18 21 9 18 10 8 2 4 6 5 5 9 2 7 13 14 15 8 6 3 13 28 16 16 9 7 61 58
64 65 70 70 66 58 56 49 41 39 32 30 28 29 25 32 30 20 24 20 36 40 16 19 35 42 42 31 28 37 3 9 20 4 3 4 4 5 5 6 3 4 12 9 17 12 6 68 8 30 13 31 58 62
68 69 71 71 74 72 62 57 46 43 34 33 31 25 30 31 41 24 28 24 24 35 35 37 30 42 48 44 40 20 13 10 8 11 9 3 7 8 6 11 2 9 11 5 6 7 19 43 52 30 22 25 52 56
77 87 78 81 76 77 71 58 52 45 41 33 33 26 29 34 39 35 31 25 31 12 8 13 24 26 34 44 44 41 20 11 9 8 7 3 4 12 5 4 6 6 15 9 12 16 9 37 59 50 33 34 49 56
77 80 89 87 86 79 80 63 56 48 42 32 34 28 27 35 40 39 39 33 38 28 4 6 13 23 27 35 41 40 37 22 9 7 4 5 4 3 2 3 9 21 15 11 12 17 7 4 25 59 57 47 55 63
70 71 78 82 86 74 74 61 57 49 41 36 34 26 29 33 30 23 15 52 48 39 11 4 10 10 21 23 31 30 28 23 11 8 4 10 7 6 4 7 17 47 42 43 6 8 19 6 11 29 71 60 59 63
56 62 69 77 80 74 78 61 52 43 36 32 34 31 32 33 38 37 14 7 32 54 13 3 5 4 19 24 22 24 28 15 10 5 11 7 7 9 3 9 16 26 43 52 46 24 14 18 10 10 62 64 58 61
49 57 62 61 50 64 53 47 44 35 31 32 31 33 33 40 57 65 56 40 16 48 12 5 2 4 29 11 9 16 16 16 12 8 7 6 4 8 11 28 54 46 28 33 45 53 39 15 10 21 36 69 63 72
33 33 22 42 43 38 35 32 32 30 31 31 30 30 45 50 38 54 48 48 33 28 11 12 12 8 28 9 9 11 12 4 8 4 6 6 5 12 24 20 31 36 25 16 24 40 51 56 39 23 29 67 72 75
21 32 27 29 26 29 30 32 28 27 27 23 26 20 15 23 43 32 50 45 36 24 18 6 18 6 20 11 4 9 3 2 5 4 9 6 9 48 71 63 49 22 19 23 24 16 32 54 60 56 47 44 77 75
16 11 22 28 29 32 30 29 33 30 24 28 16 23 33 23 28 37 23 21 22 8 27 22 17 12 22 7 6 11 5 2 5 3 5 5 9 12 28 33 45 67 63 56 46 35 27 19 28 54 55 46 48 74
30 28 30 31 34 39 43 44 42 38 41 30 24 28 31 16 29 14 12 10 13 16 20 19 21 17 20 13 8 8 6 4 9 2 3 8 10 18 16 15 12 13 20 31 40 48 59 51 31 25 40 50 49 48
42 42 40 37 36 42 44 43 38 39 36 35 21 12 11 19 16 28 16 8 9 16 31 28 10 20 15 10 11 4 8 7 7 3 8 11 6 16 19 14 11 13 16 21 24 26 25 40 61 59 41 35 44 50
43 45 46 45 42 42 41 39 39 36 29 21 16 14 10 11 10 7 12 11 13 31 61 53 23 12 12 7 6 7 4 5 2 3 13 6 10 24 17 14 13 15 15 16 20 25 27 29 31 46 52 41 37 44
44 45 44 42 41 42 42 37 34 41 25 17 17 11 15 17 18 25 12 23 22 76 82 30 17 13 4 8 4 8 5 9 12 11 7 3 17 16 11 9 8 9 11 13 14 14 18 22 22 25 44 44 34 32
50 47 54 50 46 41 41 36 38 40 20 16 12 10 10 13 12 22 18 15 44 66 52 13 9 8 5 11 9 18 16 14 9 7 6 17 11 8 6 3 2 4 6 5 5 3 4 6 11 19 23 36 33 27
42 66 64 57 51 45 42 42 36 21 17 13 13 20 20 27 18 17 22 15 59 59 8 7 11 11 10 5 7 10 11 7 7 14 19 16 12 11 10 10 10 11 10 8 9 9 9 7 3 8 13 22 21 19
54 72 71 65 56 46 45 36 18 11 15 28 6 7 25 35 38 40 21 31 41 29 22 10 21 7 13 14 8 8 12 17 21 22 21 19 17 16 17 19 21 24 24 27 25 25 23 19 16 17 12 15 15 12
63 61 76 62 51 44 23 20 16 8 24 9 12 20 27 32 49 44 35 48 31 16 14 13 7 8 8 6 2 8 38 31 33 31 29 26 25 24 26 28 28 27 27 30 29 31 30 24 19 16 10 5 5 6
56 52 69 56 59 24 15 12 20 16 10 13 12 16 18 20 32 35 37 48 35 10 3 4 4 1 4 3 5 12 36 39 50 48 37 34 32 30 34 33 31 30 28 30 29 29 29 24 21 19 15 8 5 4
66 67 64 67 56 26 16 17 16 10 8 12 14 13 13 28 18 9 11 35 12 2 3 5 3 5 7 13 28 33 40 42 36 19 50 48 39 32 32 29 27 24 20 22 20 21 19 17 16 14 12 9 6 4
74 75 68 51 14 21 15 17 8 5 8 8 15 16 11 7 15 14 20 4 3 4 6 10 15 19 27 32 36 41 37 26 24 42 41 41 40 31 27 25 17 17 15 17 17 18 16 15 12 10 8 7 8 9
86 60 49 20 12 20 11 18 10 11 3 5 8 6 6 6 11 22 9 4 1 6 19 22 22 26 36 40 32 35 33 38 44 40 37 36 34 27 20 17 14 14 14 14 14 14 14 15 13 13 15 15 16 16
61 17 12 16 13 8 16 9 8 3 6 2 2 6 3 1 14 3 3 2 8 22 26 33 32 36 35 35 36 39 40 37 40 40 33 25 24 23 18 15 14 13 12 13 13 14 13 10 11 11 12 14 15 16
12 7 10 3 5 10 6 7 5 2 7 5 6 7 6 14 7 3 4 2 17 27 33 35 33 35 35 35 32 33 35 29 26 28 27 19 15 17 16 16 16 14 13 14 12 11 11 13 13 15 16 17 17 18
6 1 5 12 6 10 12 12 13 10 5 10 11 2 3 3 6 4 5 10 18 29 34 32 31 34 32 31 32 30 28 25 19 14 19 16 13 12 13 12 11 11 11 11 12 13 14 15 16 17 18 19 20 20
12 11 8 10 9 9 6 8 9 5 12 10 6 7 8 11 6 1 3 13 19 27 31 30 30 30 30 30 27 27 26 23 16 16 22 19 16 13 12 11 11 11 11 12 13 14 14 15 15 17 20 21 23 25
6 5 13 11 12 11 8 4 2 4 3 9 5 4 4 5 4 6 8 17 25 28 29 29 29 30 30 28 26 26 26 24 25 26 23 20 18 16 14 14 15 14 14 13 15 16 16 17 19 21 22 24 26 27
4 12 13 8 8 9 5 4 5 2 3 3 1 3 5 10 8 11 18 23 28 30 31 31 31 29 29 29 28 27 28 26 21 21 19 22 20 18 17 17 16 15 16 17 18 19 20 21 22 24 25 28 31 30
5 7 13 5 5 5 5 6 12 9 10 16 13 14 16 16 18 19 24 29 32 34 32 31 32 30 31 30 34 33 28 22 21 19 19 19 20 21 21 21 20 20 22 22 21 23 24 25 27 31 31 34 33 33
13 7 11 10 6 6 22 33 29 24 14 16 16 16 16 18 23 21 19 26 32 32 31 32 35 34 34 35 34 32 31 26 23 23 23 24 25 26 26 25 26 27 26 26 28 30 30 32 34 36 38 41 41 41
8 5 9 8 5 25 15 7 9 9 5 6 8 7 8 8 9 8 17 28 34 33 34 34 37 39 35 32 28 28 30 32 31 31 30 29 30 30 31 32 34 32 32 36 39 39 37 40 42 43 44 45 44 44
14 13 11 19 13 14 23 17 9 11 10 7 5 4 4 5 9 11 20 28 32 31 34 35 36 37 36 35 35 36 36 36 36 36 36 35 36 38 41 41 40 39 40 43 45 44 44 44 47 46 45 45 44 43
Wind_Direction_850mb
258 258 256 250 252 253 261 259 262 266 273 287 303 300 260 249 258 309 303 279 229 234 256 245 234 195 171 179 166 155 128 190 112 210 173 209 175 210 96 190 178 170 156 191 156 202 291 157 121 163 207 162 176 179
262 258 255 255 251 246 253 255 255 261 262 269 294 298 273 244 247 269 309 285 246 237 268 270 252 244 234 223 176 173 232 177 200 120 225 121 186 152 157 264 232 275 190 178 188 213 210 186 235 190 180 178 181 179
265 261 256 251 251 248 244 250 247 253 256 264 281 290 283 253 243 246 290 285 263 244 264 263 258 250 243 236 220 167 209 224 210 229 171 183 229 135 174 240 228 243 179 215 49 272 225 213 217 216 211 197 187 184
264 255 254 251 247 244 237 234 240 243 250 256 267 284 281 274 248 235 288 283 253 242 251 249 251 242 236 227 218 213 184 204 241 219 233 173 207 194 232 229 201 195 143 190 263 268 272 238 225 220 199 192 190 190
266 258 248 249 248 240 233 226 230 233 241 245 257 275 280 290 255 256 265 251 248 219 271 255 264 246 236 225 218 218 214 213 207 218 191 241 207 155 318 324 242 192 188 174 223 217 183 241 231 214 212 199 192 192
260 253 246 239 239 230 219 216 223 226 231 241 253 260 274 291 271 272 275 244 240 231 247 262 246 244 215 212 211 207 200 198 216 222 264 257 237 198 227 239 254 218 216 215 234 231 212 237 263 222 212 209 200 196
252 248 244 240 242 244 216 202 212 219 230 239 251 252 270 282 263 250 224 273 237 210 213 234 250 181 171 171 180 182 195 195 208 237 228 242 222 215 221 237 257 244 236 230 233 236 259 239 229 257 207 208 206 203
245 245 243 230 233 197 189 195 204 214 229 243 256 265 271 275 262 263 226 252 242 182 177 222 249 170 169 178 166 167 164 179 207 249 245 210 214 215 254 244 248 246 247 248 236 235 235 247 251 226 213 205 209 205
234 231 203 170 174 184 187 199 206 216 231 247 255 270 272 273 259 253 246 241 222 187 204 165 162 198 169 159 148 150 162 164 214 239 224 165 218 223 231 239 245 250 231 225 227 234 232 233 238 240 213 207 212 213
207 180 176 180 189 197 199 205 213 225 232 245 254 259 251 248 243 221 192 183 190 204 220 170 138 155 165 155 147 123 158 201 221 211 155 196 256 247 248 248 248 231 202 227 228 233 222 226 228 229 229 226 218 217
258 216 197 202 207 214 215 217 221 225 227 231 231 233 248 220 190 196 203 172 193 205 187 158 163 138 186 140 158 191 157 145 242 170 205 243 267 247 250 236 243 247 245 251 250 244 240 248 243 233 229 227 230 225
237 228 227 227 228 235 231 229 225 220 217 216 233 262 267 269 229 194 191 181 182 201 154 143 155 137 153 156 114 169 141 150 246 102 74 267 248 237 199 186 194 224 234 237 245 248 240 237 238 241 229 232 232 235
239 235 231 232 232 224 223 221 220 224 223 235 242 250 218 235 245 183 196 179 159 160 161 154 121 138 134 150 92 153 149 213 137 67 232 237 293 196 196 202 234 256 252 250 256 249 245 237 235 238 239 244 231 229
234 231 230 229 232 225 218 216 217 212 205 191 205 216 237 250 259 208 167 183 148 151 148 139 116 132 133 118 146 139 69 86 6 277 235 244 232 191 203 219 236 254 262 258 258 257 257 254 250 236 228 229 231 232
225 225 224 223 221 219 213 214 210 211 214 216 201 227 218 296 291 322 112 130 127 149 145 121 90 112 121 113 77 117 86 245 215 232 229 145 139 163 207 238 254 264 276 281 273 264 267 264 246 230 221 225 235 234
219 222 222 223 223 218 216 212 216 215 223 228 259 267 289 356 332 320 298 144 149 153 148 129 125 120 158 133 144 210 149 217 235 218 163 147 153 166 164 166 322 328 318 305 295 290 275 265 236 225 223 216 219 232
220 225 223 220 221 219 211 219 212 215 217 216 241 255 283 302 286 285 253 232 164 159 180 135 132 175 110 85 234 187 207 222 144 145 146 143 144 139 119 97 83 69 58 58 68 77 84 70 102 173 182 194 199 212
242 220 222 221 220 217 215 220 197 233 221 234 231 244 281 278 302 293 259 195 174 206 160 184 126 145 178 177 233 215 168 145 138 141 134 130 128 124 113 104 96 85 81 81 82 81 82 81 82 95 133 182 200 217
244 243 217 213 206 199 189 205 194 230 233 241 231 248 263 277 278 270 281 199 205 208 172 147 161 186 209 207 221 164 166 154 153 136 129 125 119 113 105 100 97 92 88 84 81 79 78 78 82 92 106 151 185 215
235 212 205 196 184 170 176 211 201 223 214 208 222 240 240 248 263 256 250 208 213 215 203 216 216 247 315 102 166 193 168 153 147 132 127 125 117 112 105 100 98 92 89 85 82 79 75 76 80 83 86 91 103 150
225 207 173 174 176 183 194 180 205 227 177 195 216 248 300 291 280 246 180 180 200 102 108 86 104 113 139 135 133 151 146 144 144 152 146 132 125 122 113 107 96 96 91 87 80 78 76 74 74 76 78 75 76 78
160 161 164 170 161 184 217 198 195 188 208 183 184 200 216 204 213 186 158 120 83 110 114 126 133 127 130 127 133 137 133 139 137 137 134 130 126 123 116 107 102 91 80 69 63 59 55 54 48 44 37 30 29 25
148 147 158 155 152 188 174 171 183 202 173 194 181 217 217 223 165 146 80 71 136 140 133 135 131 132 128 128 139 131 132 140 137 134 132 131 128 123 118 112 98 77 67 60 55 54 51 46 38 37 40 36 30 24
140 128 159 154 160 169 149 153 160 214 251 271 53 311 305 244 153 46 130 72 132 142 142 137 138 133 131 132 132 130 136 145 140 134 130 133 132 120 108 94 84 76 78 76 65 54 44 36 36 32 35 33 30 23
124 169 169 135 132 110 96 116 138 163 238 191 181 230 230 181 189 153 159 187 157 150 150 145 146 151 142 136 137 135 135 137 141 142 134 133 121 108 101 89 82 75 73 69 62 54 41 35 28 31 31 32 31 28
140 150 143 184 156 154 185 151 182 160 175 204 220 327 154 223 221 195 116 165 162 157 158 156 151 150 152 155 148 141 140 140 140 145 125 117 112 110 111 107 98 80 76 74 66 55 43 34 30 30 30 36 36 31
170 221 164 113 141 172 89 25 45 112 202 160 131 185 209 209 177 19 96 151 159 159 161 161 161 163 161 155 153 148 143 138 142 139 131 124 122 117 112 106 95 92 82 71 62 58 53 47 44 41 40 38 36 33
119 160 138 110 66 24 94 117 292 261 64 12 298 192 277 43 130 172 170 160 156 156 158 158 157 156 159 159 154 154 147 143 138 127 120 116 110 105 102 98 93 89 83 77 71 64 60 54 50 46 42 41 43 43
74 102 103 81 100 77 76 119 130 60 320 355 63 94 104 95 96 128 140 147 151 148 149 151 151 154 157 155 152 148 146 143 142 141 130 117 109 103 101 98 99 100 95 84 75 73 68 62 61 58 58 55 55 53
88 126 105 88 65 48 65 97 112 105 91 97 99 102 83 83 85 114 131 141 147 145 143 148 148 150 148 152 150 149 147 142 142 135 129 122 116 112 107 103 98 94 87 85 82 80 78 73 69 69 69 69 67 66
117 112 82 71 90 63 117 98 88 77 67 70 92 118 131 123 90 88 118 134 139 140 141 144 143 140 140 139 141 140 133 131 128 125 122 120 117 111 105 104 100 95 93 92 89 86 85 88 84 82 80 78 76 74
163 136 120 109 121 162 161 172 135 104 98 67 73 88 94 106 93 108 130 146 150 147 140 138 139 137 136 134 131 132 131 126 124 121 117 112 111 110 110 106 100 100 101 99 95 93 92 90 89 86 85 83 80 78
125 131 128 128 133 179 192 176 156 118 97 105 112 106 111 104 111 128 144 150 149 145 138 136 136 132 129 129 130 127 125 123 119 116 114 114 115 112 108 104 103 103 102 100 98 95 94 92 90 88 85 83 80 78